RH
26 24 22 21 23 26 26 31 29 30 29 29 34 35 30 41 69 87 89 88 86 84 85 90 85 92 97 97 97 97 85 71 69 73 76 79 80 75 70 59 54 49 46 49
25 20 20 23 24 22 23 27 31 31 28 24 24 27 25 32 46 81 92 90 92 92 85 93 90 94 92 96 98 99 98 91 72 69 66 69 70 72 62 60 53 48 46 47
18 19 21 20 16 24 23 29 34 39 32 28 27 26 26 26 36 49 61 84 90 95 97 95 96 97 96 96 96 97 98 98 92 76 72 70 66 63 65 60 55 52 46 52
18 16 22 16 17 24 26 28 36 39 33 33 23 30 27 28 36 43 47 73 86 91 87 86 86 93 96 96 96 94 96 97 93 82 75 69 70 68 62 57 55 54 50 51
24 20 26 19 21 26 25 33 35 36 29 28 28 36 29 29 42 43 42 50 67 68 80 82 89 86 89 90 96 96 95 96 97 92 81 78 66 53 51 50 52 52 53 51
19 22 25 19 25 27 25 28 29 29 33 50 33 37 37 39 45 46 44 46 50 53 54 56 60 71 83 87 91 89 92 95 95 94 94 92 77 63 59 58 58 56 56 57
20 17 17 24 24 25 26 27 46 44 52 43 31 39 43 40 41 46 49 46 43 44 47 50 50 52 58 69 82 88 92 95 89 89 92 94 94 89 65 58 55 54 54 57
33 47 18 20 31 40 33 33 42 36 34 30 28 39 49 41 40 41 41 42 41 40 39 42 44 43 44 47 55 60 76 85 85 93 97 94 92 95 92 67 55 53 53 53
24 26 19 22 26 33 29 34 30 36 24 30 32 34 33 38 44 42 40 39 40 37 35 33 33 35 34 36 42 46 50 54 56 70 83 91 96 98 97 94 94 86 61 53
21 29 20 21 22 27 25 23 33 34 39 32 25 30 40 55 53 45 44 41 36 34 31 30 28 30 30 32 34 36 36 40 43 45 48 61 70 89 97 96 95 94 92 90
24 26 24 25 22 22 28 26 27 27 29 32 26 33 41 54 52 48 46 42 36 31 28 27 27 27 29 30 31 32 33 34 37 38 37 40 48 50 60 84 95 96 95 93
25 26 34 26 20 20 26 24 24 39 30 26 28 34 40 45 47 48 44 41 35 31 29 27 28 28 29 31 32 34 33 34 35 36 35 37 42 48 50 54 59 65 71 76
24 30 40 31 28 28 32 25 23 26 34 40 33 39 41 43 43 40 44 40 35 32 30 28 28 29 30 31 33 34 34 35 36 36 36 38 42 44 47 50 52 55 61 69
40 31 35 40 33 27 29 26 26 30 47 38 30 33 50 49 48 41 42 39 35 32 30 30 30 30 30 31 34 34 34 35 36 36 37 38 39 41 44 49 53 56 57 62
36 40 41 34 31 32 34 35 34 40 36 42 29 31 34 45 44 38 40 38 36 34 32 33 34 32 32 33 34 34 35 36 36 38 40 41 40 40 42 45 47 49 53 55
39 44 44 53 42 41 48 41 38 38 36 35 34 33 43 43 35 38 42 41 39 36 35 35 35 35 36 36 36 36 37 37 37 39 41 40 41 43 46 47 48 48 50 51
41 46 53 59 44 46 53 46 39 36 47 43 42 47 47 48 42 40 45 43 40 38 38 38 38 38 38 37 36 38 38 36 38 41 40 42 44 47 50 49 49 50 52 53
45 52 54 62 52 68 63 55 53 45 54 54 53 51 48 47 41 40 46 45 41 40 40 40 40 40 40 37 37 38 38 38 40 41 43 44 48 51 51 53 55 56 56 59
51 53 60 67 54 40 71 67 61 59 60 56 56 53 50 43 39 49 45 42 42 41 41 41 40 41 40 38 38 40 40 40 40 42 46 47 48 51 53 57 58 58 60 62
53 50 57 59 67 48 61 60 51 55 65 57 53 53 51 46 45 55 44 42 42 41 42 43 43 42 40 39 38 41 42 42 43 47 47 46 48 51 52 54 58 59 61 63
65 63 71 68 65 50 57 55 56 75 71 56 52 52 52 52 48 47 44 43 42 42 42 39 38 41 36 34 36 39 38 40 42 45 47 48 49 51 50 56 58 62 68 68
51 57 61 56 61 67 56 64 75 69 55 54 54 55 57 52 50 49 47 46 41 39 37 35 38 37 32 32 34 37 38 38 39 43 46 46 48 49 53 63 66 68 69 72
64 55 66 59 65 61 54 59 54 53 55 57 56 55 56 56 53 49 46 41 37 35 35 35 38 37 34 34 35 40 39 38 39 42 44 46 52 58 59 62 66 68 69 72
65 63 86 72 81 74 68 58 55 53 55 56 56 57 56 55 49 43 40 39 36 36 37 38 41 40 40 38 38 39 40 40 43 49 54 62 68 68 63 63 65 71 74 78
71 65 72 87 82 74 69 58 57 58 55 51 46 50 48 46 47 42 41 39 38 39 41 43 44 44 44 42 42 41 41 44 54 61 70 72 65 73 74 69 70 73 72 71
72 82 83 86 69 76 66 59 56 55 56 56 56 56 48 44 44 42 43 42 44 46 47 46 44 45 47 46 47 44 43 48 62 73 68 71 75 75 74 77 80 69 69 69
Wind_Speed
2 4 9 13 10 10 10 11 8 7 4 12 11 14 17 19 20 19 20 19 20 14 6 1 6 11 13 7 9 7 5 9 9 8 8 7 5 4 4 6 9 9 8 9
5 7 8 9 4 13 5 12 8 6 4 4 10 15 15 21 17 20 22 22 20 24 15 9 10 9 11 9 8 9 8 6 6 5 6 4 6 5 6 6 8 9 9 8
4 5 8 7 8 15 3 9 9 6 5 7 10 12 18 17 21 19 17 21 24 25 14 12 13 8 7 10 8 6 2 0 1 6 7 3 4 2 5 6 6 6 7 8
3 4 6 12 9 11 6 12 8 9 10 3 9 5 17 17 18 20 20 20 22 25 22 15 13 12 9 6 3 5 3 3 2 5 6 10 6 6 5 5 5 6 8 8
4 5 7 12 7 8 6 11 7 8 6 6 10 5 12 15 18 19 20 19 19 19 20 18 20 20 19 8 6 2 3 2 3 1 4 3 5 3 3 3 5 7 7 8
3 1 3 7 11 3 12 6 7 7 7 3 7 6 8 11 14 16 18 19 19 20 20 21 20 19 18 18 14 6 4 3 3 2 1 4 3 1 2 3 3 4 4 5
6 2 2 5 10 4 14 1 3 3 2 4 3 4 5 11 12 14 15 17 18 18 19 20 23 20 20 20 18 16 16 3 4 3 3 3 2 4 5 4 4 5 4 4
6 4 5 8 4 6 8 4 3 5 4 5 1 4 6 10 11 13 15 16 17 20 19 20 21 19 18 19 21 18 19 16 16 10 2 2 4 2 2 6 5 5 5 4
5 4 1 2 2 5 5 3 1 5 2 5 3 5 9 9 11 12 13 14 16 17 17 18 18 17 18 17 16 18 17 16 15 14 10 9 6 2 3 2 4 6 8 4
3 7 3 2 2 1 5 3 3 3 3 3 3 5 1 5 8 10 12 13 15 15 16 17 15 15 15 16 16 16 16 15 15 13 12 11 10 5 4 3 4 4 5 7
3 3 1 3 2 3 3 1 0 4 4 4 4 3 3 5 5 7 10 13 16 17 16 14 15 16 16 15 15 16 16 16 15 15 14 14 13 13 11 5 4 6 7 7
3 5 5 8 2 2 3 3 5 4 3 3 5 2 4 6 5 3 6 7 8 10 12 12 13 13 14 15 15 15 15 16 15 15 14 13 12 11 10 10 10 10 10 7
1 3 5 5 4 3 5 5 5 5 4 11 5 4 5 4 3 6 7 8 7 8 10 11 12 13 14 14 15 15 15 16 15 14 14 13 12 12 11 11 10 11 11 11
2 7 11 9 8 3 8 8 8 9 7 7 10 3 10 7 2 4 6 8 9 10 11 11 11 11 11 13 14 14 15 15 15 14 14 13 13 13 13 13 13 12 11 12
5 7 10 13 16 14 15 16 15 15 15 10 2 6 5 5 1 4 5 7 9 11 14 15 15 14 14 14 14 14 14 14 15 14 14 14 14 13 13 13 13 13 13 13
3 5 4 8 17 16 16 15 14 15 16 18 18 15 5 6 1 3 4 7 9 11 13 14 14 16 16 16 15 15 14 14 14 14 14 14 14 14 14 14 14 14 14 13
4 4 4 6 1 8 14 11 13 6 3 6 12 6 4 4 3 6 5 7 9 11 12 13 13 14 14 15 16 17 17 16 15 14 14 15 15 15 15 15 15 15 15 15
8 7 6 8 8 7 4 4 2 5 2 2 3 5 4 3 5 2 4 7 10 11 12 12 13 14 14 15 15 16 16 17 16 15 15 15 15 15 15 15 15 16 15 15
11 10 5 5 6 7 4 1 1 3 4 3 3 2 2 5 6 7 4 7 8 10 11 11 11 13 13 14 15 15 16 15 15 16 17 17 16 16 16 16 16 15 15 15
5 10 7 2 5 6 6 4 3 1 5 5 1 2 4 7 5 6 8 8 8 9 9 11 13 13 13 14 14 15 15 16 15 16 17 16 16 16 16 16 16 16 15 16
5 5 12 10 7 1 3 1 1 4 4 4 2 3 4 4 4 8 7 7 8 9 10 11 11 11 12 13 14 15 15 15 16 16 16 16 16 17 17 17 15 16 16 16
9 7 6 5 6 9 1 4 5 4 4 2 1 2 4 5 7 8 9 10 10 11 11 11 11 11 12 13 13 15 15 16 16 16 16 16 17 14 14 18 16 17 16 18
5 2 0 2 2 6 6 8 5 3 3 2 2 2 4 6 7 9 10 11 12 13 12 12 12 14 13 12 12 15 16 16 16 16 16 16 17 16 15 17 17 15 15 14
3 1 2 4 6 6 5 5 4 4 3 2 2 4 5 8 8 10 10 10 11 11 12 12 13 14 14 13 14 15 16 16 16 16 16 15 16 17 15 13 12 13 13 13
3 1 4 3 6 5 3 3 3 2 1 1 3 4 6 7 9 10 10 11 10 11 11 12 12 13 15 14 15 15 15 15 14 14 14 15 13 15 15 14 13 13 14 16
2 3 2 2 6 3 5 4 2 0 1 3 4 6 6 7 9 10 10 10 11 11 12 12 13 14 15 15 15 15 15 14 14 14 13 13 13 12 12 14 14 20 27 32
Wind_Direction
58 336 10 351 345 329 303 300 357 46 347 66 54 50 46 40 33 14 354 357 348 326 313 213 115 82 72 59 56 33 131 130 122 132 141 141 148 148 172 191 198 192 202 190
214 38 2 339 329 317 325 312 24 117 344 340 69 62 60 56 54 33 354 350 352 340 270 168 106 77 113 97 67 59 11 43 113 129 141 133 155 169 191 192 196 198 195 188
7 17 327 350 358 347 2 350 332 320 300 256 288 60 34 49 32 34 12 352 11 358 80 72 65 55 55 67 86 91 188 221 270 132 125 134 164 163 203 191 195 196 200 190
28 339 337 348 17 352 304 353 308 297 283 357 339 1 33 25 28 28 24 12 4 8 20 44 62 56 60 78 94 96 75 73 341 119 150 166 180 195 197 198 195 190 205 199
21 344 354 359 3 339 341 331 308 303 297 317 7 325 26 19 14 23 22 24 22 19 30 33 38 30 17 45 64 117 95 118 106 355 358 183 195 221 195 187 201 209 197 205
16 34 324 338 317 276 309 291 271 278 287 265 352 335 47 25 3 30 31 27 26 24 28 35 40 39 27 22 17 30 116 120 105 196 221 17 13 236 229 229 235 219 207 198
335 101 98 343 325 213 6 254 277 271 280 327 11 298 18 45 38 35 38 33 34 29 33 34 34 29 27 30 24 24 21 60 146 183 195 171 257 335 298 267 256 249 212 207
332 312 17 20 36 317 335 354 326 298 304 349 194 340 78 68 62 52 41 40 32 30 27 34 30 27 26 25 22 29 26 25 28 19 15 217 246 240 256 309 283 271 261 237
328 320 116 26 335 332 353 18 0 285 243 289 44 116 158 92 59 52 44 41 40 34 28 30 30 29 26 23 18 23 21 24 20 25 10 25 12 333 261 253 282 309 311 284
28 290 155 62 235 219 344 339 233 198 275 277 198 286 106 42 37 42 40 32 35 30 26 23 25 25 23 20 20 22 24 19 16 16 14 12 25 355 320 334 314 270 258 279
302 239 245 204 197 326 202 327 264 287 282 300 312 148 83 117 78 48 36 28 23 15 16 17 18 16 14 15 17 15 13 16 13 6 7 8 12 4 5 342 310 288 287 280
35 309 280 298 43 264 279 307 303 291 161 252 296 305 127 117 100 66 60 49 41 25 12 12 11 11 8 10 12 10 9 9 9 360 360 0 1 358 360 356 346 334 315 288
94 230 294 173 171 166 234 219 273 278 296 250 266 96 146 142 87 44 28 18 22 24 17 13 8 7 7 7 5 5 6 4 2 355 353 354 356 349 349 346 339 335 327 321
278 254 246 270 322 348 268 242 227 256 259 269 242 232 183 176 183 28 19 9 3 4 7 10 8 10 9 6 3 1 359 357 355 352 353 352 351 345 342 337 334 334 331 321
242 255 257 269 283 282 271 265 265 252 239 265 343 324 127 139 3 20 12 4 0 1 1 0 0 2 2 3 2 359 357 355 351 350 350 349 345 343 338 335 332 329 324 318
222 277 308 277 260 262 276 265 253 247 254 254 267 271 111 113 93 11 17 1 358 358 357 355 355 354 355 355 354 354 354 352 351 351 348 347 345 341 338 333 327 322 318 314
250 274 293 278 77 295 271 273 239 247 336 306 263 50 122 159 12 355 360 357 355 353 351 350 351 350 350 349 347 347 345 343 348 347 348 347 343 340 336 330 327 323 318 315
246 236 258 278 290 238 72 25 295 229 117 146 114 96 64 28 349 1 35 355 347 350 347 347 346 344 344 342 346 341 341 341 340 340 344 341 337 333 329 326 323 320 316 312
236 237 261 255 247 301 182 156 111 231 159 180 198 150 27 351 296 152 49 1 346 344 339 338 336 335 333 337 339 335 333 336 333 339 335 333 331 327 325 322 318 315 313 311
208 230 227 184 262 263 57 109 16 343 232 128 104 73 1 336 283 94 359 347 343 338 334 332 331 326 327 333 331 329 327 328 330 333 326 324 324 320 319 315 316 312 307 300
156 197 220 231 256 166 87 51 317 235 67 105 43 26 341 318 350 334 335 331 334 327 326 326 323 318 324 324 324 320 321 320 326 322 321 320 319 320 319 316 315 311 307 300
189 190 197 214 237 253 43 151 226 88 98 102 45 12 324 323 323 324 328 329 330 329 329 329 320 320 323 321 320 316 315 319 319 318 316 317 317 317 318 316 314 314 308 304
211 288 145 307 6 91 54 77 84 46 75 71 324 359 328 316 317 324 322 323 324 325 326 326 322 319 319 322 322 315 315 316 316 315 314 317 314 310 309 313 312 309 304 300
133 24 211 177 149 141 124 104 82 56 68 44 358 331 318 306 310 310 314 315 314 315 316 318 317 316 316 321 320 315 315 315 316 313 316 314 311 310 311 308 306 302 304 303
24 221 163 108 125 130 151 108 93 102 74 334 318 302 300 303 304 313 312 312 314 313 315 314 314 310 312 316 316 315 315 316 315 312 314 310 310 307 306 305 305 305 300 296
359 59 224 62 82 50 90 122 103 154 341 327 314 312 308 304 306 312 309 312 312 312 315 311 311 311 312 312 312 313 316 317 314 313 315 311 308 303 307 306 305 302 304 307